EN

Hourly Weather Godzimierz

Today, 18 May, Tuesday

Time Temperature Precipitation Wind Pressure Humidity
00:00 +12°C° 0 mm 1 mps 745 mmHg 87%
01:00 +12°C° 0 mm 1 mps 745 mmHg 88%
02:00 +12°C° 0.1 mm 1 mps 746 mmHg 89%
03:00 +11°C° 0.1 mm 1 mps 746 mmHg 90%
04:00 +11°C° 0.1 mm 1 mps 746 mmHg 91%
05:00 +12°C° 0.1 mm 1 mps 746 mmHg 90%
06:00 +13°C° 0.1 mm 1 mps 746 mmHg 88%
07:00 +13°C° 0.1 mm 1 mps 746 mmHg 86%
08:00 +14°C° 0.6 mm 2 mps 747 mmHg 84%
09:00 +14°C° 0.6 mm 2 mps 747 mmHg 82%
10:00 +15°C° 0.6 mm 2 mps 747 mmHg 81%
11:00 +14°C° 0.5 mm 3 mps 747 mmHg 78%
12:00 +14°C° 0.5 mm 3 mps 747 mmHg 76%
13:00 +16°C° 0.5 mm 3 mps 748 mmHg 74%
14:00 +16°C° 0.6 mm 3 mps 748 mmHg 75%
15:00 +16°C° 0.6 mm 3 mps 748 mmHg 76%
16:00 +16°C° 0.6 mm 3 mps 748 mmHg 76%
17:00 +14°C° 0.8 mm 3 mps 748 mmHg 80%
18:00 +14°C° 0.8 mm 2 mps 748 mmHg 83%
19:00 +13°C° 0.8 mm 2 mps 748 mmHg 87%
20:00 +12°C° 0.2 mm 2 mps 749 mmHg 89%
21:00 +11°C° 0.2 mm 3 mps 749 mmHg 91%
22:00 +10°C° 0.2 mm 3 mps 749 mmHg 93%
23:00 +10°C° 0 mm 3 mps 749 mmHg 93%

Tomorrow, 19 May, Wednesday

Time Temperature Precipitation Wind Pressure Humidity
00:00 +9°C° 0 mm 3 mps 750 mmHg 94%
01:00 +8°C° 0 mm 3 mps 750 mmHg 94%
02:00 +8°C° 0 mm 3 mps 750 mmHg 94%
03:00 +7°C° 0 mm 3 mps 750 mmHg 94%
04:00 +7°C° 0 mm 3 mps 750 mmHg 94%
05:00 +8°C° 0 mm 3 mps 750 mmHg 91%
06:00 +8°C° 0 mm 4 mps 750 mmHg 87%
07:00 +10°C° 0 mm 4 mps 750 mmHg 84%
08:00 +12°C° 0 mm 4 mps 750 mmHg 76%
09:00 +13°C° 0 mm 5 mps 750 mmHg 69%
10:00 +15°C° 0 mm 5 mps 750 mmHg 61%
11:00 +14°C° 0.1 mm 5 mps 750 mmHg 64%
12:00 +14°C° 0.1 mm 5 mps 750 mmHg 67%
13:00 +14°C° 0.1 mm 5 mps 750 mmHg 69%
14:00 +14°C° 0.4 mm 5 mps 750 mmHg 68%
15:00 +14°C° 0.4 mm 4 mps 751 mmHg 67%
16:00 +15°C° 0.4 mm 4 mps 751 mmHg 66%
17:00 +13°C° 0.1 mm 4 mps 751 mmHg 69%
18:00 +12°C° 0.1 mm 3 mps 751 mmHg 73%
19:00 +11°C° 0.1 mm 3 mps 751 mmHg 77%
20:00 +10°C° 0 mm 3 mps 752 mmHg 79%
21:00 +8°C° 0 mm 3 mps 752 mmHg 82%
22:00 +7°C° 0 mm 3 mps 752 mmHg 84%
23:00 +6°C° 0 mm 2 mps 752 mmHg 85%

Day after tomorrow, 20 May, Thursday

Time Temperature Precipitation Wind Pressure Humidity
00:00 +6°C° 0 mm 2 mps 753 mmHg 85%
01:00 +5°C° 0 mm 2 mps 753 mmHg 86%
02:00 +5°C° 0 mm 2 mps 753 mmHg 87%
03:00 +5°C° 0 mm 2 mps 753 mmHg 88%
04:00 +5°C° 0 mm 2 mps 753 mmHg 88%
05:00 +7°C° 0 mm 3 mps 753 mmHg 84%
06:00 +8°C° 0 mm 3 mps 754 mmHg 79%
07:00 +10°C° 0 mm 3 mps 754 mmHg 74%
08:00 +12°C° 0 mm 3 mps 754 mmHg 69%
09:00 +13°C° 0 mm 3 mps 754 mmHg 64%
10:00 +16°C° 0 mm 3 mps 754 mmHg 58%
11:00 +15°C° 0.1 mm 4 mps 754 mmHg 60%
12:00 +15°C° 0.1 mm 5 mps 754 mmHg 61%
13:00 +15°C° 0.1 mm 5 mps 754 mmHg 63%
14:00 +15°C° 0.1 mm 5 mps 754 mmHg 63%
15:00 +14°C° 0.1 mm 5 mps 754 mmHg 64%
16:00 +14°C° 0.1 mm 4 mps 754 mmHg 64%
17:00 +13°C° 0.1 mm 4 mps 755 mmHg 69%
18:00 +12°C° 0.1 mm 3 mps 755 mmHg 74%
19:00 +11°C° 0.1 mm 3 mps 755 mmHg 79%
20:00 +10°C° 0 mm 3 mps 755 mmHg 82%
21:00 +8°C° 0 mm 2 mps 755 mmHg 85%
22:00 +7°C° 0 mm 2 mps 756 mmHg 88%
23:00 +7°C° 0 mm 2 mps 755 mmHg 89%

21 May, Friday

Time Temperature Precipitation Wind Pressure Humidity
00:00 +6°C° 0 mm 2 mps 755 mmHg 90%
01:00 +6°C° 0 mm 2 mps 755 mmHg 91%
02:00 +6°C° 0 mm 2 mps 755 mmHg 91%
03:00 +6°C° 0 mm 2 mps 755 mmHg 92%
04:00 +5°C° 0 mm 2 mps 755 mmHg 92%
05:00 +7°C° 0 mm 3 mps 755 mmHg 88%
06:00 +8°C° 0 mm 4 mps 755 mmHg 83%
07:00 +10°C° 0 mm 4 mps 755 mmHg 79%
08:00 +12°C° 0 mm 5 mps 754 mmHg 73%
09:00 +13°C° 0 mm 5 mps 754 mmHg 68%
10:00 +15°C° 0 mm 6 mps 753 mmHg 63%
11:00 +15°C° 0.1 mm 6 mps 753 mmHg 62%
12:00 +16°C° 0.1 mm 6 mps 753 mmHg 61%
13:00 +16°C° 0.1 mm 7 mps 752 mmHg 59%
14:00 +16°C° 0.1 mm 6 mps 752 mmHg 60%
15:00 +16°C° 0.1 mm 6 mps 751 mmHg 61%
16:00 +16°C° 0.1 mm 6 mps 751 mmHg 61%
17:00 +15°C° 0.1 mm 5 mps 750 mmHg 65%
18:00 +14°C° 0.1 mm 5 mps 749 mmHg 68%
19:00 +13°C° 0.1 mm 5 mps 749 mmHg 72%
20:00 +13°C° 0.1 mm 4 mps 749 mmHg 77%
21:00 +12°C° 0.1 mm 3 mps 748 mmHg 82%
22:00 +12°C° 0.1 mm 2 mps 748 mmHg 87%
23:00 +11°C° 0 mm 3 mps 748 mmHg 87%

22 May, Saturday

Time Temperature Precipitation Wind Pressure Humidity
00:00 +11°C° 0 mm 3 mps 748 mmHg 87%
01:00 +11°C° 0 mm 3 mps 747 mmHg 87%
02:00 +11°C° 0 mm 3 mps 747 mmHg 87%
03:00 +11°C° 0 mm 3 mps 746 mmHg 88%
04:00 +10°C° 0 mm 3 mps 746 mmHg 88%
05:00 +11°C° 0 mm 3 mps 746 mmHg 86%
06:00 +12°C° 0 mm 4 mps 746 mmHg 84%
07:00 +13°C° 0 mm 4 mps 746 mmHg 83%
08:00 +13°C° 0.1 mm 4 mps 746 mmHg 82%
09:00 +14°C° 0.1 mm 4 mps 746 mmHg 81%
10:00 +14°C° 0.1 mm 4 mps 746 mmHg 80%
11:00 +15°C° 0.4 mm 4 mps 746 mmHg 80%
12:00 +15°C° 0.4 mm 4 mps 745 mmHg 81%
13:00 +15°C° 0.4 mm 4 mps 745 mmHg 82%
14:00 +14°C° 0.7 mm 4 mps 745 mmHg 85%
15:00 +13°C° 0.7 mm 4 mps 745 mmHg 89%
16:00 +12°C° 0.7 mm 4 mps 745 mmHg 93%
17:00 +12°C° 0.2 mm 4 mps 746 mmHg 91%
18:00 +12°C° 0.2 mm 4 mps 746 mmHg 89%
19:00 +11°C° 0.2 mm 4 mps 746 mmHg 88%
20:00 +11°C° 0 mm 4 mps 746 mmHg 89%
21:00 +10°C° 0 mm 4 mps 746 mmHg 89%
22:00 +9°C° 0 mm 3 mps 747 mmHg 90%
23:00 +8°C° 0 mm 4 mps 747 mmHg 90%

23 May, Sunday

Time Temperature Precipitation Wind Pressure Humidity
00:00 +7°C° 0 mm 4 mps 747 mmHg 90%
01:00 +7°C° 0 mm 5 mps 747 mmHg 90%
02:00 +6°C° 0 mm 5 mps 747 mmHg 92%
03:00 +6°C° 0 mm 4 mps 747 mmHg 94%
04:00 +6°C° 0 mm 4 mps 748 mmHg 95%
05:00 +7°C° 0 mm 5 mps 748 mmHg 91%
06:00 +8°C° 0 mm 5 mps 748 mmHg 88%
07:00 +9°C° 0 mm 6 mps 749 mmHg 84%
08:00 +10°C° 0.1 mm 6 mps 749 mmHg 77%
09:00 +11°C° 0.1 mm 6 mps 749 mmHg 71%
10:00 +12°C° 0.1 mm 7 mps 749 mmHg 64%
11:00 +14°C° 0.1 mm 7 mps 749 mmHg 58%
12:00 +15°C° 0.1 mm 7 mps 749 mmHg 53%
13:00 +16°C° 0.1 mm 7 mps 749 mmHg 47%
14:00 +15°C° 0 mm 7 mps 750 mmHg 50%
15:00 +15°C° 0 mm 7 mps 750 mmHg 53%
16:00 +15°C° 0 mm 6 mps 750 mmHg 57%
17:00 +13°C° 0 mm 5 mps 751 mmHg 61%
18:00 +12°C° 0 mm 4 mps 751 mmHg 66%
19:00 +11°C° 0 mm 4 mps 751 mmHg 70%
20:00 +10°C° 0 mm 3 mps 752 mmHg 74%
21:00 +9°C° 0 mm 3 mps 752 mmHg 77%
22:00 +7°C° 0 mm 3 mps 752 mmHg 81%
23:00 +7°C° 0 mm 3 mps 752 mmHg 80%
Show more